{"data":{"norad_id":58584,"epoch":"2026-08-18T01:47:07.105920Z","epoch_age_seconds":2902672,"freshness":"OLD","line1":"1 58584U 23198A   26230.07438780  .00000056  00000+0  00000+0 0  9992","line2":"2 58584  63.2129 147.3319 6901614 267.6403  18.7125  2.00593343 19562","mean_motion":2.00593343,"eccentricity":0.6901614,"inclination_deg":63.2129,"raan_deg":147.3319,"arg_perigee_deg":267.6403,"mean_anomaly_deg":18.7125,"bstar":0,"rev_number":1956,"period_min":717.870283462,"perigee_km":1850.4705937361,"apogee_km":38508.700633141,"semimajor_km":26557.722613438,"source":"CELESTRAK","updated_at":"2026-09-16T09:01:08.898059Z"}}